Location: Newark
(34.1333°N, 7.9667°W)
Time: 14:34:20
(UTC+00:00)

Vanguard 1 Rocket - Visible Passes

Search period start: 23 February 2024 00:00
Search period end: 04 March 2024 00:00
Orbit: 654 x 4218 km, 34.3° (Epoch: 22 February)

Date Brightness Start Highest point End Pass type
(mag) Time Alt. Az. Time Alt. Az. Time Alt. Az.
23 Feb 11.9 04:06:47 10° SSE 04:17:32 14° SE 04:26:43 10° ESE visible
23 Feb 11.0 06:27:31 10° SSW 06:48:01 41° SSE 07:00:22 10° E visible
24 Feb 11.4 05:14:17 10° SSW 05:33:42 30° SE 05:47:11 10° E visible
25 Feb 11.7 04:03:14 10° S 04:19:06 21° SE 04:31:55 10° E visible
25 Feb 10.8 06:27:23 10° SW 06:49:36 49° SSE 07:02:39 10° E visible
26 Feb 12.0 02:58:17 10° SSE 03:04:23 11° SE 03:10:10 10° ESE visible
26 Feb 11.2 05:13:28 10° SSW 05:35:10 38° SE 05:49:51 10° E visible
27 Feb 11.5 04:01:19 10° S 04:20:29 27° SE 04:35:33 10° E visible
27 Feb 10.6 06:27:36 10° SW 06:51:07 58° SSE 07:04:47 10° E visible
28 Feb 11.8 02:52:13 10° SSE 03:05:48 17° SE 03:18:03 10° ESE visible
28 Feb 11.0 05:13:08 10° SSW 05:36:31 46° SSE 05:52:11 10° E visible
29 Feb 11.3 04:00:15 10° SSW 04:21:43 34° SE 04:38:26 10° E visible
29 Feb 10.5 06:28:06 10° SW 06:52:35 66° SSE 07:06:47 10° ENE visible
01 Mar 11.6 02:50:45 11° S 03:06:58 23° SE 03:22:30 10° E visible
01 Mar 10.8 05:13:11 10° SW 05:37:49 54° SSE 05:54:18 10° E visible
02 Mar 11.8 01:44:22 10° SSE 01:52:28 12° SE 02:00:43 10° ESE visible
02 Mar 11.1 04:01:43 13° SSW 04:22:49 42° SE 04:40:51 10° E visible
02 Mar 10.4 06:28:51 10° WSW 06:54:02 73° SSE 07:08:44 10° ENE visible
03 Mar 11.4 02:55:04 20° S 03:07:58 29° SE 03:25:46 10° E visible
03 Mar 10.7 05:13:33 10° SW 05:39:04 62° SSE 05:56:16 10° ENE visible
